{"data":{"norad_id":59918,"intl_designator":"2024-105B","name":"2024-105B","alt_names":[],"object_type":"PAYLOAD","status":"ACTIVE","operator":null,"country":"PRC","launch_date":"2024-05-30","launch_site_code":"JSC","launch_vehicle":null,"mission":null,"orbit_class":"UNKNOWN","rcs_meters":null,"size_class":null,"mass_kg":null,"dimensions":null,"purposes":[],"wikipedia_slug":null,"has_3d_model":false,"image_url":null,"decayed_at":null,"tle_current":{"epoch":"2026-09-22T23:52:27.505056Z","epoch_age_seconds":59948,"freshness":"FRESH","line1":"1 59918U 24105B   26265.99476279  .00003414  00000+0  16077-3 0  9993","line2":"2 59918  97.5802 281.8912 0010054 263.9527  96.0562 15.20193431127906","mean_motion":15.20193431,"eccentricity":0.0010054,"inclination_deg":97.5802,"raan_deg":281.8912,"arg_perigee_deg":263.9527,"mean_anomaly_deg":96.0562,"bstar":0.00016077,"rev_number":12790,"period_min":94.724787690521,"perigee_km":498.33608771225,"apogee_km":512.17721566707,"semimajor_km":6883.3936516897,"source":"CELESTRAK","updated_at":"2026-09-23T09:00:20.347471Z"}}}